Powrót do katalogu

DELTA 1 DEB

AktywnySSO
NORAD 10655·DEBRIS·🇺🇸 United States

Wystrzelony Jul 29, 1976 z Vandenberg Space Force Base

Loading…

Następne Przeloty (najbliższe 24 godziny)

TLE

ŚwieżeSource: Space-Track

Epoka: Sep 14, 2026, 06:26 UTC

1 10655U 76077R   26257.26806084  .00000187  00000-0  22360-2 0  9991
2 10655 102.7656 351.6743 0274434 322.8254  54.3836 12.11406150217049

Śledź DELTA 1 DEB w czasie rzeczywistym z AllMySat

Download on the App Store